Location: Barrialito
(10.3588°N, 66.9747°W)
Time: 09:34:43
(UTC+00:00)

SMAP - Visible Passes

Search period start: 29 June 2022 00:00
Search period end: 09 July 2022 00:00
Orbit: 681 x 684 km, 98.1° (Epoch: 28 June)

Date Brightness Start Highest point End Pass type
(mag) Time Alt. Az. Time Alt. Az. Time Alt. Az.
30 Jun 6.0 09:25:48 10° ENE 09:27:40 12° E 09:29:32 10° ESE visible
30 Jun 6.2 23:27:34 10° WSW 23:28:40 11° W 23:29:47 10° W visible
03 Jul 5.8 09:36:45 10° ENE 09:39:53 18° E 09:43:02 10° SE visible
05 Jul 5.9 23:13:48 10° SW 23:16:37 16° W 23:19:26 10° WNW visible
08 Jul 6.0 09:25:55 10° ENE 09:27:49 12° E 09:29:43 10° SE visible
08 Jul 6.3 23:27:47 10° WSW 23:28:50 11° W 23:29:53 10° W visible
